This is the latest recevied weather packets stored in our database for station/object W5ITZ. If no packets are shown the sender has not sent any weather packets the latest 10 day(s).
| Time | Temp. | Humidity | Pressure | Rain* | Wind** | Luminosity | Snow |
|---|---|---|---|---|---|---|---|
| 1787960062 | 30° C | 65% | 1015.7 hPa | 0 mm | - | 125 W/m² | - |
| 1787959757 | 30° C | 66% | 1015.4 hPa | 0 mm | - | 144 W/m² | - |
| 1787959452 | 30° C | 65% | 1015.3 hPa | 0 mm | - | 149 W/m² | - |
| 1787959147 | 30° C | 65% | 1015.2 hPa | 0 mm | - | 150 W/m² | - |
| 1787958851 | 31.11° C | 63% | 1015.5 hPa | 0 mm | - | 132 W/m² | - |
| 1787958537 | 31.11° C | 68% | 1015.4 hPa | 0 mm | - | 127 W/m² | - |
| 1787958233 | 30.56° C | 69% | 1015.2 hPa | 0 mm | - | 133 W/m² | - |
| 1787957931 | 30.56° C | 72% | 1015.3 hPa | 0 mm | - | 143 W/m² | - |
| 1787957626 | 30.56° C | 72% | 1015.4 hPa | 0 mm | - | 138 W/m² | - |
| 1787957322 | 30.56° C | 72% | 1015.1 hPa | 0 mm | - | 132 W/m² | - |
| 1787957020 | 30.56° C | 72% | 1015.3 hPa | 0 mm | - | 132 W/m² | - |
| 1787956720 | 30.56° C | 73% | 1015.1 hPa | 0 mm | - | 132 W/m² | - |
| 1787956416 | 30.56° C | 73% | 1014.8 hPa | 0 mm | - | 130 W/m² | - |
| 1787956111 | 30.56° C | 72% | 1014.8 hPa | 0 mm | - | 126 W/m² | - |
| 1787955806 | 30.56° C | 72% | 1015.1 hPa | 0 mm | - | 128 W/m² | - |
| 1787955502 | 30.56° C | 73% | 1015.4 hPa | 0 mm | - | 123 W/m² | - |
| 1787955201 | 30.56° C | 74% | 1015.4 hPa | 0 mm | - | 113 W/m² | - |
| 1787954896 | 30.56° C | 73% | 1015.2 hPa | 0 mm | - | 121 W/m² | - |
| 1787954592 | 30.56° C | 73% | 1015.1 hPa | 0 mm | - | 137 W/m² | - |
| 1787954291 | 31.11° C | 71% | 1015.1 hPa | 0 mm | - | 172 W/m² | - |
| 1787953986 | 31.11° C | 71% | 1015.2 hPa | 0 mm | - | 199 W/m² | - |
| 1787953685 | 31.11° C | 71% | 1015 hPa | 0 mm | - | 209 W/m² | - |
| 1787953381 | 31.67° C | 69% | 1015 hPa | 0 mm | - | 203 W/m² | - |
| 1787953078 | 31.67° C | 68% | 1014.9 hPa | 0 mm | - | 265 W/m² | - |
| 1787952778 | 31.67° C | 66% | 1015.1 hPa | 0 mm | - | 185 W/m² | - |
* Rain latest hour (hover to see other rain measurements)
** Current wind speed in m/s (hover to see current wind gust speed)